DateTimeUTC,F1_A11,F1_S11,BsB_S11,BsG_S11,BsR_S11,BbsB_S11,BbsG_S11,BbsR_S11,BaB_A11,BaG_A11,BaR_A11,Tu_S11,T_S11,Uu_S11,U_S11,P_S11,T1_A11
2021-10-02T11:00:00Z,00000200,21000000,,,,,,,0000.29,-000.09,-000.21,16.5,23.6,,00.0,0671.5,30.9
2021-10-02T11:01:00Z,00000200,21000000,,,,,,,0000.18,0000.14,0000.28,16.5,23.6,,00.0,0671.5,30.9
2021-10-02T11:02:00Z,00000200,21000000,,,,,,,-000.02,0000.13,-000.01,16.4,23.6,,00.0,0671.5,30.9
2021-10-02T11:03:00Z,00000200,61000000,,,,,,,-000.06,-000.02,-000.00,16.4,23.6,,00.0,0671.5,30.9
2021-10-02T11:04:00Z,00000200,41000000,0000.63,0000.50,0000.57,0000.26,0000.20,0000.29,0000.27,0000.32,0000.06,16.7,23.4,,00.0,0672.5,30.9
2021-10-02T11:05:00Z,00000200,01000000,0000.76,0000.01,-000.04,0000.80,-000.02,-000.16,0000.65,0000.60,0000.58,16.8,23.4,,00.0,0672.6,30.9
2021-10-02T11:06:00Z,00000200,01000000,0000.63,0000.73,0000.19,0000.71,0000.27,0000.44,0001.23,0001.48,0001.20,16.9,23.4,,00.0,0672.6,30.9
2021-10-02T11:07:00Z,00000200,01000000,0001.79,0000.74,0000.64,0000.47,0000.30,0000.42,0010.30,0008.73,0006.62,17.0,23.4,,00.0,0672.6,30.9
2021-10-02T11:08:00Z,00000200,01000000,0001.29,0000.76,0000.60,0000.69,0000.36,0000.20,0016.05,0014.72,0011.04,17.0,23.5,,00.0,0672.6,30.9
2021-10-02T11:09:00Z,00000200,01000000,0002.71,0001.27,0000.63,0000.73,0000.49,0000.28,0018.69,0017.16,0012.99,17.0,23.5,,00.0,0672.6,30.9
2021-10-02T11:10:00Z,00000200,01000000,0000.39,0000.75,0000.42,0000.58,0000.11,0000.25,0006.31,0005.30,0004.49,16.9,23.4,,00.0,0672.6,30.9
2021-10-02T11:11:00Z,00000200,01000000,0000.97,0000.79,0000.14,0000.69,0000.16,0000.24,0001.58,0001.71,0001.13,16.9,23.4,,00.0,0672.6,30.9
2021-10-02T11:12:00Z,00000200,01000000,0001.40,0000.67,0000.50,0001.09,-000.07,0000.30,0002.67,0001.99,0001.23,16.8,23.3,,00.0,0672.6,30.9
2021-10-02T11:13:00Z,00000200,01000000,0000.66,0000.90,0000.25,0000.70,0000.18,0000.11,0005.72,0005.21,0003.84,16.7,23.3,,00.0,0672.6,30.9
2021-10-02T11:14:00Z,00000200,01000000,0001.34,0001.16,0000.68,0000.73,-000.27,0000.65,0009.35,0008.04,0006.75,16.7,23.3,,00.0,0672.6,30.9
2021-10-02T11:15:00Z,00000200,01000000,0001.06,0000.93,0000.74,0000.67,0000.50,0000.27,0005.29,0005.38,0003.62,16.6,23.2,,00.0,0672.6,30.9
2021-10-02T11:16:00Z,00000200,01000000,0001.58,0000.97,0000.90,0001.16,0000.28,0000.43,0003.82,0002.87,0002.38,16.6,23.2,,00.0,0672.6,30.9
2021-10-02T11:17:00Z,00000200,01000000,0000.49,0000.62,0000.16,0000.32,0000.50,0000.20,0003.32,0002.96,0002.03,16.6,23.2,,00.0,0672.6,30.9
2021-10-02T11:18:00Z,00000200,01000000,0000.65,0000.85,0000.60,0000.67,0000.34,0000.24,0002.32,0002.43,0001.82,16.6,23.2,,00.0,0672.6,30.9
2021-10-02T11:19:00Z,00000200,01000000,0001.41,0000.67,0000.42,0000.59,0000.40,0000.13,0000.54,0000.68,0000.57,16.7,23.2,,00.0,0672.6,30.9
2021-10-02T11:20:00Z,00000200,01000000,0000.86,0000.62,0000.15,0000.88,0000.06,0000.32,0000.04,0000.13,0000.04,16.7,23.3,,00.0,0672.6,30.9
2021-10-02T11:21:00Z,00000200,01000000,0000.14,0000.77,0000.40,0000.48,-000.20,0000.17,0000.44,-000.05,0000.21,16.8,23.3,,00.0,0672.6,30.9
2021-10-02T11:22:00Z,00000200,01000000,0001.79,0000.87,0000.61,0000.73,0000.10,0000.35,-000.01,0000.02,-000.25,16.9,23.3,,00.0,0672.6,30.9
2021-10-02T11:23:00Z,00000200,01000000,0001.55,0000.57,0000.56,0000.20,-000.18,0000.47,-000.00,0000.25,0000.23,16.9,23.3,,00.0,0672.6,30.9
2021-10-02T11:24:00Z,00000200,01000000,0000.41,0000.90,0000.67,0000.79,0000.21,0000.29,0000.19,0000.12,0000.08,16.9,23.4,,00.0,0672.6,30.9
2021-10-02T11:25:00Z,00000200,01000000,0001.41,0000.67,0000.19,0000.15,0000.03,0000.27,0000.55,0000.50,0000.65,16.8,23.3,,00.0,0672.6,30.9
2021-10-02T11:26:00Z,00000200,01000000,0001.21,0000.38,0000.18,0000.26,0000.03,0000.19,0000.29,-000.09,0000.08,16.8,23.3,,00.0,0672.7,30.9
2021-10-02T11:27:00Z,00000200,01000000,0001.31,0000.94,0000.41,0000.19,0000.04,0000.36,0000.90,0001.28,0000.63,16.7,23.2,,00.0,0672.7,30.9
2021-10-02T11:28:00Z,00000200,01000000,0001.30,0000.61,0000.20,0000.41,0000.34,0000.21,0003.63,0002.99,0002.21,16.6,23.2,,00.0,0672.6,30.8
2021-10-02T11:29:00Z,00000200,01000000,0001.56,0001.00,0000.36,0000.34,0000.16,-000.09,0002.51,0002.53,0002.02,16.6,23.1,,00.0,0672.6,30.8
2021-10-02T11:30:00Z,00000200,01000000,0000.58,0000.60,0000.42,0000.36,0000.30,-000.12,0001.79,0001.17,0001.05,16.5,23.1,,00.0,0672.6,30.8
2021-10-02T11:31:00Z,00000200,01000000,0000.95,0000.36,0000.58,0000.77,0000.07,0000.19,0001.04,0001.12,0000.61,16.5,23.1,,00.0,0672.6,30.8
2021-10-02T11:32:00Z,00000200,01000000,0000.44,0000.51,0000.24,0000.68,0000.56,0000.02,0001.01,0001.28,0000.86,16.5,23.1,,00.0,0672.6,30.8
2021-10-02T11:33:00Z,00000200,01000000,0000.65,0000.50,0000.39,0000.94,0000.25,0000.32,0003.25,0002.52,0002.02,16.5,23.1,,00.0,0672.6,30.8
2021-10-02T11:34:00Z,00000200,01000000,0001.78,0000.71,0000.65,0000.48,0000.26,0000.37,0005.44,0004.97,0003.97,16.6,23.1,,00.0,0672.7,30.9
2021-10-02T11:35:00Z,00000200,01000000,0000.89,0000.79,0000.90,0000.61,0000.52,0000.17,0007.00,0006.26,0004.64,16.6,23.1,,00.0,0672.6,30.9
2021-10-02T11:36:00Z,00000200,01000000,0001.25,0000.81,0000.34,0001.07,0000.24,0000.00,0006.72,0006.24,0004.74,16.7,23.2,,00.0,0672.7,30.9
2021-10-02T11:37:00Z,00000200,01000000,0001.29,0000.60,0000.65,0000.31,-000.04,0000.17,0007.99,0007.24,0005.44,16.7,23.2,,00.0,0672.7,30.9
2021-10-02T11:38:00Z,00000200,01000000,0001.90,0001.11,0000.62,0000.55,0000.09,0000.12,0011.16,0010.01,0007.70,16.8,23.2,,00.0,0672.7,30.9
2021-10-02T11:39:00Z,00000200,01000000,0001.09,0001.17,0000.53,0000.66,0000.43,0000.35,0013.76,0012.10,0009.51,16.9,23.3,,00.0,0672.7,30.9
2021-10-02T11:40:00Z,00000200,01000000,0001.13,0000.93,0000.21,0000.51,0000.17,0000.06,0008.55,0007.90,0005.79,16.9,23.3,,00.0,0672.7,30.9
2021-10-02T11:41:00Z,00000200,01000000,0001.15,0000.59,0000.40,0000.63,0000.01,0000.36,0002.65,0002.53,0001.81,16.9,23.3,,00.0,0672.7,30.9
2021-10-02T11:42:00Z,00000200,01000000,0001.08,0000.48,0000.21,0000.40,0000.39,0000.23,0003.05,0002.70,0001.97,16.8,23.3,,00.0,0672.6,30.9
2021-10-02T11:43:00Z,00000200,01000000,0001.41,0000.56,0000.32,0000.53,0000.28,0000.13,0001.29,0000.68,0001.02,16.7,23.2,,00.0,0672.6,30.9
2021-10-02T11:44:00Z,00000200,01000000,0000.47,0001.01,0000.27,0000.60,0000.37,-000.02,0000.70,0000.96,0000.41,16.7,23.2,,00.0,0672.6,30.9
2021-10-02T11:45:00Z,00000200,01000000,0000.55,0000.60,0000.14,0000.71,0000.11,0000.14,0000.49,0000.61,0000.37,16.6,23.2,,00.0,0672.6,30.9
2021-10-02T11:46:00Z,00000200,01000000,0000.16,0000.57,0000.45,0000.27,0000.20,0000.36,0000.78,0000.32,0000.30,16.6,23.2,,00.0,0672.6,30.9
2021-10-02T11:47:00Z,00000200,01000000,0000.79,0000.82,0000.42,0000.67,0000.44,0000.33,0000.55,0000.63,0000.60,16.6,23.2,,00.0,0672.7,30.9
2021-10-02T11:48:00Z,00000200,01000000,0000.47,0000.40,0000.23,0000.69,0000.28,0000.14,0000.13,0000.42,-000.06,16.6,23.2,,00.0,0672.6,30.9
2021-10-02T11:49:00Z,00000200,01000000,0000.98,0000.87,0000.55,-000.24,0000.07,0000.08,0000.19,0000.03,0000.37,16.7,23.2,,00.0,0672.7,30.9
2021-10-02T11:50:00Z,00000200,01000000,0001.11,0000.35,0000.59,0000.58,-000.02,0000.18,0000.81,0000.43,0000.26,16.8,23.2,,00.0,0672.7,30.9
2021-10-02T11:51:00Z,00000200,01000000,0000.80,0000.81,0000.68,0000.67,0000.03,0000.11,0002.13,0002.13,0001.74,16.9,23.2,,00.0,0672.7,30.9
2021-10-02T11:52:00Z,00000200,01000000,0001.34,0000.71,0000.68,0000.64,0000.26,-000.22,0008.66,0007.99,0006.02,17.0,23.3,,00.0,0672.7,30.9
2021-10-02T11:53:00Z,00000200,01000000,0000.69,0000.62,0000.43,0000.58,0000.40,0000.00,0001.68,0001.68,0000.94,17.0,23.3,,00.0,0672.7,30.9
2021-10-02T11:54:00Z,00000200,01000000,0001.21,0000.59,0000.25,0000.38,0000.43,0000.45,0000.63,0000.32,0000.35,17.1,23.4,,00.0,0672.7,30.9
2021-10-02T11:55:00Z,00000200,01000000,0001.19,0000.27,0000.30,0000.13,-000.12,0000.22,-000.21,-000.13,0000.01,17.1,23.4,,00.0,0672.7,30.9
2021-10-02T11:56:00Z,00000200,01000000,0000.69,0000.66,0000.31,0000.35,0000.40,0000.28,0002.89,0002.59,0001.68,17.0,23.4,,00.0,0672.7,30.9
2021-10-02T11:57:00Z,00000200,41000000,,,,,,,0002.16,0001.96,0001.53,17.1,23.4,,00.0,0672.7,30.9
2021-10-02T11:58:00Z,00000200,61000000,,,,,,,0000.29,-000.17,-000.03,16.6,23.5,,00.0,0671.7,30.9
2021-10-02T11:59:00Z,00000200,21000000,,,,,,,0000.17,0000.36,0000.42,16.6,23.6,,00.0,0671.7,30.9
